Location: Newark
(46.1292°N, 1.0086°W)
Time: 02:42:32
(UTC+00:00)

Vanguard 3 - Pass Details

Date: 19 November 2019
Orbit: 508 x 3263 km, 33.3° (Epoch: 12 December)

Event Time Altitude Azimuth Distance (km) Brightness Sun altitude
Rises 19:00:55 0° 275° (W) 7,016 13.2 -26.2°
Reaches altitude 10° 19:06:46 10° 267° (W) 5,710 12.4 -27.2°
Maximum altitude 19:19:44 30° 215° (SW) 3,329 10.4 -29.5°
Enters shadow 19:27:52 12° 161° (SSE) 3,670 10.3 -30.9°
Drops below altitude 10° 19:28:26 10° 159° (SSE) 3,768 - -31.0°
Sets 19:31:25 0° 148° (SSE) 4,394 - -31.5°
